DW4892 Weather Reports


time (UTC)temp
C
wind
direction
speed
KPH
gust
KPH
rain 1hr
cm
rain 24hr
cm
rain mn
cm
humidity
%
barometer
mb
20260906214535 28 102 4.8 12.9 0.00 0.03 0.03 37 998.1
20260906213103 28 194 4.8 9.7 0.00 0.03 0.03 37 998.6
20260906211530 29 244 4.8 12.9 0.00 0.03 0.03 37 998.7
20260906210039 30 92 4.8 16.1 0.00 0.03 0.03 34 998.8
20260906204521 31 80 4.8 16.1 0.00 0.03 0.03 33 998.9
20260906203019 31 212 4.8 16.1 0.00 0.03 0.03 32 999.2
20260906201530 31 35 3.2 17.7 0.03 0.03 0.03 31 999.2
20260906200028 32 71 4.8 17.7 0.03 0.03 0.03 30 999.4
20260906194521 32 79 4.8 12.9 0.03 0.03 0.03 29 999.5
20260906193017 32 171 6.4 19.3 0.03 0.03 0.03 29 999.7
20260906191517 32 101 1.6 8.0 0.00 0.00 0.00 31 999.9
20260906190040 32 40 3.2 14.5 0.00 0.00 0.00 34 1000.3
20260906184522 31 87 4.8 12.9 0.00 0.00 0.00 33 1000.6
20260906183024 31 296 4.8 14.5 0.00 0.00 0.00 34 1000.8
20260906181530 31 36 3.2 12.9 0.00 0.00 0.00 34 1001.4
20260906180032 30 138 1.6 9.7 0.00 0.00 0.00 34 1001.8
20260906174526 29 40 1.6 8.0 0.00 0.00 0.00 36 1002.1
20260906173021 29 296 1.6 4.8 0.00 0.00 0.00 40 1002.3
20260906171518 28 57 3.2 9.7 0.00 0.00 0.00 37 1002.5
20260906170035 28 336 1.6 8.0 0.00 0.00 0.00 38 1002.5
20260906164527 26 109 0.0 6.4 0.00 0.00 0.00 42 1002.7
20260906163027 26 54 1.6 6.4 0.00 0.00 0.00 42 1002.8
20260906161521 26 42 1.6 4.8 0.00 0.00 0.00 44 1002.8
20260906160029 23 296 0.0 6.4 0.00 0.00 0.00 48 1002.9
20260906154544 23 309 1.6 6.4 0.00 0.00 0.00 47 1002.7
20260906153031 23 43 1.6 6.4 0.00 0.00 0.00 48 1002.8
20260906151526 22 31 1.6 6.4 0.00 0.00 0.00 51 1002.7
20260906150023 21 325 1.6 4.8 0.00 0.00 0.00 56 1002.6
20260906144516 21 299 1.6 6.4 0.00 0.00 0.00 60 1002.7
20260906143039 20 306 1.6 6.4 0.00 0.00 0.00 66 1002.7
20260906141529 19 319 0.0 6.4 0.00 0.00 0.00 70 1002.8
20260906140039 18 273 1.6 6.4 0.00 0.00 0.00 69 1002.8
20260906134519 18 288 0.0 4.8 0.00 0.00 0.00 73 1002.8
20260906133033 17 255 1.6 4.8 0.00 0.00 0.00 75 1002.7
20260906131529 16 276 1.6 4.8 0.00 0.00 0.00 70 1002.7
20260906130039 15 288 0.0 1.6 0.00 0.00 0.00 70 1002.7
20260906124518 15 288 0.0 1.6 0.00 0.00 0.00 67 1002.5
20260906123015 16 288 0.0 4.8 0.00 0.00 0.00 65 1002.2
20260906121526 16 300 1.6 11.3 0.00 0.00 0.00 62 1002.3
20260906120021 16 290 1.6 6.4 0.00 0.00 0.00 63 1002.3
20260906114519 16 285 3.2 6.4 0.00 0.00 0.00 63 1002.3
20260906113042 16 299 1.6 4.8 0.00 0.00 0.00 62 1002.3
20260906111527 16 282 1.6 3.2 0.00 0.00 0.00 60 1002.3
20260906110022 16 292 1.6 3.2 0.00 0.00 0.00 59 1002.2
20260906104516 16 279 1.6 4.8 0.00 0.00 0.00 60 1002.0
20260906103029 17 280 0.0 1.6 0.00 0.00 0.00 59 1002.2
20260906101525 17 289 0.0 1.6 0.00 0.00 0.00 57 1002.0
20260906100017 18 289 0.0 3.2 0.00 0.00 0.00 55 1002.1
20260906094525 18 284 0.0 1.6 0.00 0.00 0.00 54 1001.9
20260906093028 18 286 0.0 4.8 0.00 0.00 0.00 54 1001.8
20260906091528 18 264 0.0 1.6 0.00 0.00 0.00 54 1001.9
20260906090022 18 174 0.0 3.2 0.00 0.00 0.00 56 1001.8
20260906084522 17 180 0.0 3.2 0.00 0.00 0.00 57 1001.6
20260906083016 17 180 0.0 1.6 0.00 0.00 0.00 59 1001.9
20260906081534 18 180 0.0 1.6 0.00 0.00 0.00 58 1002.0
20260906080021 18 222 0.0 0.0 0.00 0.00 0.00 58 1002.0
20260906074517 18 180 0.0 3.2 0.00 0.00 0.00 57 1002.1
20260906073033 18 180 0.0 3.2 0.00 0.00 0.00 56 1001.9
20260906071525 18 231 0.0 3.2 0.00 0.00 0.00 56 1001.9
20260906070021 18 236 0.0 0.0 0.00 0.00 0.00 56 1001.6
20260906064516 19 273 0.0 6.4 0.00 0.00 0.00 56 1001.5
20260906063031 19 286 0.0 3.2 0.00 0.00 0.00 57 1001.4
20260906061529 18 292 0.0 3.2 0.00 0.00 0.00 59 1001.6
20260906060022 18 344 0.0 4.8 0.00 0.00 0.00 60 1001.7
20260906054518 20 88 3.2 6.4 0.00 0.00 0.00 55 1001.8
20260906053014 21 297 1.6 4.8 0.00 0.00 0.00 55 1001.8
20260906051532 21 339 0.0 1.6 0.00 0.00 0.00 57 1001.7
20260906050048 21 30 0.0 1.6 0.00 0.00 0.00 62 1001.6
20260906044521 21 45 0.0 3.2 0.00 0.00 0.00 66 1001.8
20260906043107 21 77 0.0 1.6 0.00 0.00 0.00 66 1001.8
20260906041530 21 76 0.0 1.6 0.00 0.00 0.00 67 1001.9
20260906040024 21 76 0.0 0.0 0.00 0.00 0.00 64 1002.0
20260906034523 21 76 0.0 3.2 0.00 0.00 0.00 61 1002.1
20260906033021 23 93 0.0 19.3 0.00 0.00 0.00 56 1002.2
20260906031536 23 30 1.6 6.4 0.00 0.00 0.00 36 1001.8
20260906030027 23 102 0.0 3.2 0.00 0.00 0.00 37 1001.0
20260906024520 23 309 1.6 3.2 0.00 0.00 0.00 35 1000.7
20260906023107 25 180 0.0 1.6 0.00 0.00 0.00 33 1000.5
20260906021529 24 180 0.0 0.0 0.00 0.00 0.00 34 1000.5
20260906020022 25 180 0.0 1.6 0.00 0.00 0.00 33 1000.2
20260906014516 25 176 0.0 3.2 0.00 0.00 0.00 32 1000.2
20260906013013 26 209 0.0 4.8 0.00 0.00 0.00 31 1000.1
20260906011528 26 166 0.0 3.2 0.00 0.00 0.00 30 1000.1
20260906010028 27 180 1.6 8.0 0.00 0.00 0.00 29 1000.1
20260906004523 27 157 1.6 8.0 0.00 0.00 0.00 29 1000.1
20260906003015 28 194 1.6 8.0 0.00 0.00 0.00 28 1000.0
20260906001512 28 95 1.6 6.4 0.00 0.00 0.00 29 1000.1
20260906000030 28 200 3.2 8.0 0.00 0.00 0.00 28 999.9
20260905234521 28 125 3.2 9.7 0.00 0.00 0.00 28 999.7
20260905233025 29 194 3.2 8.0 0.00 0.00 0.00 27 999.7
20260905231513 28 57 1.6 6.4 0.00 0.00 0.00 27 999.8
20260905230026 29 271 0.0 4.8 0.00 0.00 0.00 27 999.8
20260905224526 30 29 0.0 6.4 0.00 0.00 0.00 25 999.7
20260905223019 30 307 1.6 8.0 0.00 0.00 0.00 27 999.7
20260905221557 30 82 1.6 6.4 0.00 0.00 0.00 27 999.8
20260905220029 30 52 1.6 4.8 0.00 0.00 0.00 28 999.8